Powrót do katalogu

STARLINK-30938

AktywnyŁącznośćVLEO
NORAD 58389·PAYLOAD·🇺🇸 United States

Wystrzelony Nov 20, 2023 z Vandenberg Space Force Base

Loading…

Następne Przeloty (najbliższe 24 godziny)

TLE

ŚwieżeSource: CelesTrak SupGP

Epoka: Sep 15, 2026, 03:02 UTC

1 58389C 23178R   26258.12687500 -.00059567  00000+0 -17600-2 0  2583
2 58389  53.1570 198.5156 0001320  83.6870 230.1697 15.34419147    17

Śledź STARLINK-30938 w czasie rzeczywistym z AllMySat

Download on the App Store